Terug naar catalogus

ARIANE 5 DEB

SYLDA

ActiefHEO
NORAD 43273·DEBRIS·🇫🇷 France

Gelanceerd Apr 5, 2018 vanaf Guiana Space Centre

Loading…

Volgende Passages (komende 24 uur)

TLE

VersSource: Space-Track

Epoch: Sep 13, 2026, 17:07 UTC

1 43273U 18033C   26256.71361813  .00000948  00000-0  11562-2 0  9993
2 43273   2.6940 151.1058 5470915 185.6225 164.1094  4.69529989113307

Volg ARIANE 5 DEB in realtime met AllMySat

Download on the App Store